| time (UTC) | temp C | wind direction | speed KPH | gust KPH | rain 1hr cm | rain 24hr cm | rain mn cm | humidity % | barometer mb |
| 20260906130235 | 27 | 207 | 3.2 | 9.7 | 0.00 | 0.00 | 0.00 | 87 | 1003.1 |
| 20260906125713 | 27 | 208 | 3.2 | 6.4 | 0.00 | 0.00 | 0.00 | 88 | 1001.3 |
| 20260906124233 | 27 | 209 | 1.6 | 4.8 | 0.00 | 0.00 | 0.00 | 89 | 999.2 |
| 20260906123717 | 26 | 201 | 1.6 | 4.8 | 0.00 | 0.00 | 0.00 | 90 | 999.7 |
| 20260906122233 | 26 | 244 | 3.2 | 6.4 | 0.00 | 0.00 | 0.00 | 91 | 998.6 |
| 20260906121717 | 26 | 220 | 3.2 | 4.8 | 0.00 | 0.00 | 0.00 | 91 | 997.3 |
| 20260906120716 | 26 | 261 | 1.6 | 3.2 | 0.00 | 0.00 | 0.00 | 92 | 997.1 |
| 20260906115233 | 26 | 43 | 0.0 | 3.2 | 0.00 | 0.00 | 0.00 | 91 | 996.7 |
| 20260906114233 | 26 | 0 | 0.0 | 1.6 | 0.00 | 0.00 | 0.00 | 91 | 996.5 |
| 20260906113233 | 26 | 0 | 1.6 | 3.2 | 0.00 | 0.00 | 0.00 | 91 | 996.4 |
| 20260906112221 | 26 | 192 | 1.6 | 6.4 | 0.00 | 0.00 | 0.00 | 91 | 996.5 |
| 20260906111205 | 26 | 166 | 1.6 | 6.4 | 0.00 | 0.00 | 0.00 | 91 | 996.2 |
| 20260906110205 | 26 | 189 | 3.2 | 6.4 | 0.00 | 0.00 | 0.00 | 91 | 996.0 |
| 20260906105206 | 26 | 202 | 1.6 | 6.4 | 0.00 | 0.00 | 0.00 | 90 | 995.8 |
| 20260906104206 | 26 | 221 | 1.6 | 6.4 | 0.00 | 0.00 | 0.00 | 90 | 995.7 |
| 20260906103206 | 26 | 226 | 3.2 | 9.7 | 0.00 | 0.00 | 0.00 | 90 | 995.8 |
| 20260906102204 | 26 | 203 | 1.6 | 9.7 | 0.00 | 0.00 | 0.00 | 90 | 995.8 |
| 20260906101201 | 26 | 211 | 3.2 | 9.7 | 0.00 | 0.00 | 0.00 | 90 | 995.9 |
| 20260906100636 | 26 | 189 | 3.2 | 8.0 | 0.00 | 0.00 | 0.00 | 90 | 995.7 |
| 20260906095224 | 26 | 0 | 1.6 | 6.4 | 0.00 | 0.00 | 0.00 | 90 | 995.7 |
| 20260906094154 | 26 | 0 | 1.6 | 4.8 | 0.00 | 0.00 | 0.00 | 90 | 995.6 |
| 20260906093155 | 26 | 216 | 3.2 | 8.0 | 0.00 | 0.00 | 0.00 | 90 | 995.7 |
| 20260906092207 | 26 | 203 | 3.2 | 9.7 | 0.00 | 0.00 | 0.00 | 90 | 995.7 |
| 20260906091154 | 26 | 209 | 0.0 | 6.4 | 0.00 | 0.00 | 0.00 | 89 | 995.5 |
| 20260906090155 | 26 | 0 | 1.6 | 8.0 | 0.00 | 0.00 | 0.00 | 89 | 996.0 |
| 20260906085152 | 26 | 202 | 1.6 | 6.4 | 0.00 | 0.00 | 0.00 | 89 | 996.4 |
| 20260906084152 | 26 | 21 | 1.6 | 4.8 | 0.00 | 0.00 | 0.00 | 89 | 996.5 |
| 20260906083153 | 26 | 4 | 3.2 | 9.7 | 0.00 | 0.00 | 0.00 | 89 | 996.7 |
| 20260906082150 | 26 | 222 | 1.6 | 8.0 | 0.00 | 0.00 | 0.00 | 89 | 996.6 |
| 20260906081149 | 26 | 212 | 1.6 | 6.4 | 0.00 | 0.00 | 0.00 | 89 | 996.6 |
| 20260906080150 | 26 | 152 | 3.2 | 8.0 | 0.00 | 0.00 | 0.00 | 89 | 996.9 |
| 20260906075150 | 26 | 206 | 3.2 | 6.4 | 0.00 | 0.00 | 0.00 | 89 | 996.9 |
| 20260906074147 | 26 | 237 | 3.2 | 8.0 | 0.00 | 0.00 | 0.00 | 89 | 996.6 |
| 20260906073145 | 27 | 224 | 1.6 | 4.8 | 0.00 | 0.00 | 0.00 | 89 | 996.2 |
| 20260906072145 | 27 | 189 | 3.2 | 8.0 | 0.00 | 0.00 | 0.00 | 89 | 996.5 |
| 20260906071145 | 27 | 207 | 3.2 | 9.7 | 0.00 | 0.00 | 0.00 | 89 | 996.6 |
| 20260906070145 | 27 | 336 | 1.6 | 6.4 | 0.00 | 0.00 | 0.00 | 89 | 996.7 |
| 20260906065146 | 27 | 300 | 1.6 | 6.4 | 0.00 | 0.00 | 0.00 | 89 | 996.7 |
| 20260906064145 | 27 | 0 | 1.6 | 6.4 | 0.00 | 0.00 | 0.00 | 89 | 996.7 |
| 20260906063145 | 27 | 359 | 1.6 | 6.4 | 0.00 | 0.00 | 0.00 | 89 | 997.0 |
| 20260906062629 | 27 | 216 | 1.6 | 8.0 | 0.00 | 0.00 | 0.00 | 89 | 997.0 |
| 20260906061142 | 27 | 207 | 1.6 | 6.4 | 0.00 | 0.00 | 0.00 | 90 | 996.6 |
| 20260906060140 | 27 | 203 | 1.6 | 8.0 | 0.00 | 0.00 | 0.00 | 91 | 996.6 |
| 20260906055141 | 27 | 335 | 1.6 | 4.8 | 0.00 | 0.00 | 0.00 | 92 | 996.5 |
| 20260906054139 | 27 | 0 | 1.6 | 4.8 | 0.00 | 0.00 | 0.00 | 92 | 996.6 |
| 20260906053140 | 27 | 0 | 0.0 | 3.2 | 0.00 | 0.00 | 0.00 | 92 | 996.6 |
| 20260906052140 | 27 | 0 | 1.6 | 4.8 | 0.00 | 0.00 | 0.00 | 92 | 996.7 |
| 20260906051140 | 27 | 51 | 3.2 | 8.0 | 0.00 | 0.00 | 0.00 | 93 | 996.8 |
| 20260906050138 | 27 | 257 | 3.2 | 9.7 | 0.00 | 0.00 | 0.00 | 93 | 996.8 |
| 20260906045139 | 27 | 194 | 3.2 | 8.0 | 0.00 | 0.00 | 0.00 | 93 | 997.0 |
| 20260906044139 | 27 | 169 | 3.2 | 6.4 | 0.00 | 0.00 | 0.00 | 93 | 997.1 |
| 20260906043621 | 27 | 179 | 3.2 | 8.0 | 0.00 | 0.00 | 0.00 | 93 | 997.0 |
| 20260906042139 | 27 | 190 | 3.2 | 6.4 | 0.00 | 0.00 | 0.00 | 93 | 997.0 |
| 20260906041140 | 27 | 198 | 3.2 | 8.0 | 0.00 | 0.00 | 0.00 | 92 | 997.3 |
| 20260906040139 | 27 | 200 | 3.2 | 8.0 | 0.00 | 0.00 | 0.00 | 92 | 997.3 |
| 20260906035139 | 27 | 214 | 3.2 | 6.4 | 0.00 | 0.00 | 0.00 | 92 | 997.4 |
| 20260906034139 | 27 | 231 | 3.2 | 8.0 | 0.00 | 0.00 | 0.00 | 92 | 997.5 |
| 20260906033610 | 27 | 195 | 3.2 | 8.0 | 0.00 | 0.00 | 0.00 | 91 | 997.7 |
| 20260906032624 | 27 | 169 | 3.2 | 9.7 | 0.00 | 0.00 | 0.00 | 91 | 998.0 |
| 20260906031149 | 27 | 199 | 4.8 | 9.7 | 0.00 | 0.00 | 0.00 | 91 | 998.0 |
| 20260906030618 | 27 | 193 | 4.8 | 9.7 | 0.00 | 0.00 | 0.00 | 90 | 998.2 |
| 20260906025136 | 27 | 184 | 4.8 | 9.7 | 0.00 | 0.00 | 0.00 | 90 | 998.3 |
| 20260906024617 | 27 | 168 | 4.8 | 9.7 | 0.00 | 0.00 | 0.00 | 90 | 998.2 |
| 20260906023137 | 27 | 185 | 6.4 | 11.3 | 0.00 | 0.00 | 0.00 | 89 | 997.9 |
| 20260906022147 | 27 | 218 | 4.8 | 9.7 | 0.00 | 0.00 | 0.00 | 87 | 998.0 |
| 20260906021133 | 27 | 172 | 4.8 | 11.3 | 0.00 | 0.00 | 0.00 | 87 | 998.0 |
| 20260906020133 | 27 | 193 | 4.8 | 8.0 | 0.00 | 0.00 | 0.00 | 86 | 998.1 |
| 20260906015133 | 27 | 170 | 3.2 | 8.0 | 0.00 | 0.00 | 0.00 | 86 | 997.7 |
| 20260906014134 | 27 | 166 | 3.2 | 9.7 | 0.00 | 0.00 | 0.00 | 86 | 997.6 |
| 20260906013134 | 27 | 108 | 3.2 | 8.0 | 0.00 | 0.00 | 0.00 | 86 | 997.0 |
| 20260906012134 | 27 | 164 | 3.2 | 8.0 | 0.00 | 0.00 | 0.00 | 85 | 996.9 |
| 20260906011132 | 27 | 140 | 1.6 | 4.8 | 0.00 | 0.00 | 0.00 | 85 | 996.7 |
| 20260906010143 | 27 | 179 | 3.2 | 8.0 | 0.00 | 0.00 | 0.00 | 85 | 996.8 |
| 20260906005129 | 27 | 201 | 3.2 | 9.7 | 0.00 | 0.00 | 0.00 | 84 | 996.5 |
| 20260906004125 | 27 | 125 | 1.6 | 4.8 | 0.00 | 0.00 | 0.00 | 84 | 996.3 |
| 20260906003125 | 27 | 0 | 1.6 | 4.8 | 0.00 | 0.00 | 0.00 | 83 | 996.1 |
| 20260906002126 | 28 | 151 | 1.6 | 6.4 | 0.00 | 0.00 | 0.00 | 83 | 995.9 |
| 20260906001129 | 28 | 106 | 1.6 | 4.8 | 0.00 | 0.00 | 0.00 | 82 | 995.8 |
| 20260906000125 | 28 | 120 | 1.6 | 4.8 | 0.00 | 0.00 | 0.00 | 82 | 995.8 |
| 20260905235122 | 28 | 107 | 3.2 | 4.8 | 0.00 | 0.00 | 0.00 | 81 | 995.9 |
| 20260905234121 | 28 | 85 | 3.2 | 4.8 | 0.00 | 0.00 | 0.00 | 80 | 996.3 |
| 20260905233120 | 28 | 195 | 3.2 | 6.4 | 0.00 | 0.00 | 0.00 | 79 | 996.7 |
| 20260905232600 | 28 | 139 | 3.2 | 8.0 | 0.00 | 0.00 | 0.00 | 79 | 997.0 |
| 20260905231121 | 28 | 137 | 3.2 | 8.0 | 0.00 | 0.00 | 0.00 | 78 | 996.9 |
| 20260905230121 | 28 | 157 | 3.2 | 9.7 | 0.00 | 0.00 | 0.00 | 78 | 997.5 |
| 20260905225121 | 29 | 154 | 4.8 | 9.7 | 0.00 | 0.00 | 0.00 | 77 | 998.0 |
| 20260905224119 | 29 | 161 | 4.8 | 9.7 | 0.00 | 0.00 | 0.00 | 76 | 999.1 |
| 20260905223115 | 29 | 162 | 3.2 | 9.7 | 0.00 | 0.00 | 0.00 | 76 | 998.9 |
| 20260905222115 | 29 | 117 | 3.2 | 6.4 | 0.00 | 0.00 | 0.00 | 75 | 999.0 |
| 20260905221116 | 30 | 133 | 3.2 | 11.3 | 0.00 | 0.00 | 0.00 | 75 | 999.2 |
| 20260905220122 | 30 | 109 | 3.2 | 8.0 | 0.00 | 0.00 | 0.00 | 74 | 999.4 |
| 20260905215138 | 30 | 188 | 4.8 | 8.0 | 0.00 | 0.00 | 0.00 | 74 | 999.4 |
| 20260905214116 | 30 | 142 | 3.2 | 8.0 | 0.00 | 0.00 | 0.00 | 73 | 1000.4 |
| 20260905213116 | 30 | 166 | 3.2 | 8.0 | 0.00 | 0.00 | 0.00 | 73 | 1000.3 |
| 20260905212113 | 30 | 167 | 3.2 | 9.7 | 0.00 | 0.00 | 0.00 | 72 | 1000.3 |
| 20260905211110 | 30 | 112 | 3.2 | 9.7 | 0.00 | 0.00 | 0.00 | 71 | 1000.5 |
| 20260905210123 | 30 | 170 | 4.8 | 9.7 | 0.00 | 0.00 | 0.00 | 71 | 1000.3 |
| 20260905205111 | 30 | 193 | 4.8 | 11.3 | 0.00 | 0.00 | 0.00 | 70 | 1000.1 |
| 20260905204112 | 31 | 225 | 4.8 | 11.3 | 0.00 | 0.00 | 0.00 | 72 | 1000.0 |
| 20260905203111 | 31 | 220 | 4.8 | 11.3 | 0.00 | 0.00 | 0.00 | 72 | 999.8 |
| 20260905202111 | 31 | 182 | 4.8 | 8.0 | 0.00 | 0.00 | 0.00 | 70 | 1000.4 |
| 20260905201109 | 32 | 205 | 3.2 | 6.4 | 0.00 | 0.03 | 0.00 | 68 | 1001.2 |
| 20260905195551 | 32 | 190 | 3.2 | 11.3 | 0.00 | 0.03 | 0.00 | 68 | 1002.4 |
| 20260905194106 | 32 | 193 | 4.8 | 9.7 | 0.00 | 0.03 | 0.00 | 68 | 1001.8 |
| 20260905193106 | 33 | 245 | 3.2 | 9.7 | 0.00 | 0.03 | 0.00 | 66 | 1004.0 |
| 20260905192105 | 33 | 316 | 4.8 | 11.3 | 0.00 | 0.03 | 0.00 | 64 | 1011.3 |
| 20260905191106 | 32 | 268 | 4.8 | 12.9 | 0.00 | 0.03 | 0.00 | 69 | 1005.3 |
| 20260905190106 | 32 | 211 | 4.8 | 11.3 | 0.00 | 0.08 | 0.00 | 69 | 1005.3 |
| 20260905185106 | 32 | 264 | 6.4 | 12.9 | 0.00 | 0.10 | 0.00 | 70 | 1008.9 |
| 20260905184106 | 32 | 204 | 4.8 | 9.7 | 0.00 | 0.10 | 0.00 | 72 | 1007.0 |
| 20260905183106 | 33 | 192 | 3.2 | 8.0 | 0.00 | 0.10 | 0.00 | 68 | 1010.5 |
| 20260905182104 | 32 | 204 | 3.2 | 8.0 | 0.00 | 0.30 | 0.00 | 69 | 1009.5 |
| 20260905181104 | 33 | 219 | 3.2 | 8.0 | 0.00 | 0.36 | 0.00 | 68 | 1005.4 |
| 20260905180108 | 33 | 199 | 3.2 | 8.0 | 0.00 | 0.36 | 0.00 | 68 | 1011.5 |
| 20260905175104 | 32 | 266 | 3.2 | 9.7 | 0.00 | 0.36 | 0.00 | 68 | 1012.2 |
| 20260905174104 | 32 | 298 | 4.8 | 8.0 | 0.00 | 0.36 | 0.00 | 73 | 1009.8 |
| 20260905173104 | 32 | 53 | 4.8 | 9.7 | 0.00 | 0.36 | 0.00 | 71 | 1006.3 |
| 20260905172549 | 32 | 16 | 3.2 | 8.0 | 0.00 | 0.36 | 0.00 | 73 | 1010.1 |
| 20260905171102 | 32 | 31 | 3.2 | 9.7 | 0.00 | 0.36 | 0.00 | 72 | 1003.9 |
| 20260905170114 | 32 | 12 | 4.8 | 9.7 | 0.00 | 0.36 | 0.00 | 73 | 1007.2 |
| 20260905165541 | 32 | 12 | 4.8 | 11.3 | 0.00 | 0.36 | 0.00 | 74 | 1009.8 |
| 20260905164100 | 32 | 274 | 3.2 | 11.3 | 0.00 | 0.36 | 0.00 | 70 | 1012.7 |
| 20260905163100 | 32 | 290 | 3.2 | 6.4 | 0.00 | 0.36 | 0.00 | 71 | 1011.0 |
| 20260905162100 | 32 | 33 | 4.8 | 9.7 | 0.00 | 0.36 | 0.00 | 72 | 1012.4 |
| 20260905161100 | 32 | 347 | 3.2 | 11.3 | 0.00 | 0.36 | 0.00 | 73 | 1013.4 |
| 20260905160109 | 31 | 1 | 3.2 | 6.4 | 0.00 | 0.36 | 0.00 | 76 | 1013.2 |
| 20260905155056 | 30 | 341 | 3.2 | 9.7 | 0.00 | 0.36 | 0.00 | 79 | 1012.4 |
| 20260905154057 | 29 | 17 | 1.6 | 4.8 | 0.00 | 0.36 | 0.00 | 84 | 1005.4 |
| 20260905153057 | 29 | 12 | 3.2 | 6.4 | 0.00 | 0.36 | 0.00 | 84 | 1001.4 |
| 20260905152554 | 30 | 8 | 3.2 | 8.0 | 0.00 | 0.36 | 0.00 | 81 | 1001.8 |
| 20260905151057 | 30 | 270 | 3.2 | 6.4 | 0.00 | 0.36 | 0.00 | 81 | 1005.4 |
| 20260905150110 | 30 | 253 | 3.2 | 8.0 | 0.00 | 0.36 | 0.00 | 80 | 1003.1 |
| 20260905145057 | 30 | 233 | 3.2 | 8.0 | 0.00 | 0.36 | 0.00 | 78 | 1005.5 |
| 20260905144058 | 30 | 284 | 1.6 | 8.0 | 0.00 | 0.36 | 0.00 | 79 | 1004.0 |
| 20260905143055 | 31 | 356 | 3.2 | 8.0 | 0.00 | 0.36 | 0.00 | 78 | 1005.5 |
| 20260905142054 | 31 | 219 | 3.2 | 8.0 | 0.00 | 0.36 | 0.00 | 77 | 1009.7 |
| 20260905141108 | 30 | 325 | 3.2 | 8.0 | 0.00 | 0.36 | 0.00 | 79 | 1010.0 |
| 20260905140107 | 30 | 240 | 1.6 | 6.4 | 0.00 | 0.36 | 0.00 | 81 | 1009.5 |
| 20260905135108 | 30 | 1 | 3.2 | 6.4 | 0.00 | 0.36 | 0.00 | 83 | 1008.5 |
| 20260905134055 | 29 | 32 | 3.2 | 6.4 | 0.00 | 0.36 | 0.00 | 85 | 1008.0 |
| 20260905133108 | 29 | 200 | 1.6 | 6.4 | 0.00 | 0.36 | 0.00 | 85 | 1007.2 |
| 20260905132052 | 28 | 341 | 1.6 | 8.0 | 0.00 | 0.36 | 0.00 | 88 | 1004.7 |
| 20260905131052 | 28 | 226 | 1.6 | 4.8 | 0.00 | 0.36 | 0.00 | 90 | 1003.4 |